Weather in Tolmachi

Russia / Tver Oblast     57°25′47″N   35°41′20″E
temp.,
°C
wind,
m/s
gust,
m/s
humid.,
%
clouds,
%
prec.,
mm/h
press.,
hPa
HPBL,
m
31 july, sat
sat3100:00+15wsw229454 0.3 100332
03:00+14sw279637 0.4 1002147
06:00+14sw310945 0.0 1001263
09:00+20sw6115317 0.0 10011368
12:00+22w61151100 0.0 10011950
15:00+22wsw5105066 0.0 10032085
18:00+21wsw59594 0.1 10031522
21:00+18wsw411764 0.1 1005768
1 august, sun
sun100:00+15sw311931 0.0 1006330
03:00+14sw310955 0.0 1007266
06:00+15ssw269179 0.0 1008156
09:00+21ssw3760100 0.0 1008498
12:00+20ssw3765100 0.1 1008523
15:00+22s5967100 0.2 1007949
18:00+23wsw486932 0.3 1006935
21:00+18ssw228860 0.5 100615
2 august, mon
mon200:00+15sw379026 0.0 1008131
03:00+14w2285100 0.0 100813
06:00+15s2283100 0.0 100844
09:00+21sse356098 0.0 1007328
12:00+27sse3542100 0.0 10051508
15:00+24sse4862100 0.1 1002908
18:00+21sw4138799 1.8 1000637
21:00+20ssw41392100 3.6 999491
3 august, tue
tue300:00+15wsw5129559 0.5 1000534
03:00+15w41090100 0.5 1001812
06:00+15w389061 0.0 1002543
09:00+16w378296 0.0 1004591
12:00+21wsw365371 0.1 10041490
15:00+23w574174 0.1 10052324
18:00+21w365243 0.0 10061515
21:00+17w277263 0.1 1007244
4 august, wed
wed400:00+13w25955 0.0 1009113
03:00+11w27986 0.0 1010164
06:00+11w39940 0.0 1012322
09:00+16wnw47620 0.0 10131037
12:00+20wnw46406 0.0 10142136
15:00+22wnw453436 0.0 10142562
18:00+20wnw454427 0.0 1015930
21:00+13nw247063 0.0 101766